Overview Statistics Trail Chart Weather Telemetry Raw packets
 

This is the latest recevied weather packets stored in our database for station/object EA1IDU-12. If no packets are shown the sender has not sent any weather packets the latest 10 day(s).

<< 33 34 35 36 37 38 39 >>
Time Temp. Humidity Pressure Rain* Wind** Luminosity Snow
1787834405 23.33° C 41% 1020.6 hPa - - - -
1787833505 23.89° C 43% 1020.7 hPa - - - -
1787832605 23.89° C 44% 1020.8 hPa - - - -
1787831705 23.89° C 47% 1020.9 hPa - - - -
1787830804 22.78° C 52% 1021 hPa - - - -
1787829904 21.67° C 54% 1021 hPa - - - -
1787829004 20.56° C 56% 1020.9 hPa - - - -
1787828104 20.56° C 58% 1021.1 hPa - - - -
1787827204 21.11° C 62% 1021.2 hPa - - - -
1787826304 20° C 63% 1021.4 hPa - - - -
1787825403 20.56° C 65% 1021.2 hPa - - - -
1787824503 20° C 66% 1021.2 hPa - - - -
1787823603 20° C 66% 1021.1 hPa - - - -
1787822703 19.44° C 69% 1021.3 hPa - - - -
1787821803 18.33° C 70% 1021.3 hPa - - - -
1787820902 17.78° C 71% 1021 hPa - - - -
1787820002 17.78° C 71% 1021 hPa - - - -
1787819102 17.78° C 72% 1021 hPa - - - -
1787818202 17.78° C 74% 1020.7 hPa - - - -
1787817302 17.78° C 74% 1020.7 hPa - - - -
1787816402 18.33° C 75% 1020.7 hPa - - - -
1787815501 17.22° C 78% 1020.5 hPa - - - -
1787814601 16.11° C 78% 1020.7 hPa - - - -
1787813701 15° C 79% 1020.9 hPa - - - -
1787812801 14.44° C 80% 1020.6 hPa - - - -

* Rain since midnight (hover to see other rain measurements)
** Current wind speed in m/s (hover to see current wind gust speed)